CW2001 Weather Reports


Display with metric or nautical units.
time (UTC)temp
F
wind
direction
speed
MPH
gust
MPH
rain 1hr
in
rain 24hr
in
rain mn
in
humidity
%
barometer
mb
20180421190609 57 112 6.0 14.0 0.00 0.00 0.00 33 1026.6
20180421190109 57 122 6.0 13.0 0.00 0.00 0.00 35 1026.6
20180421185609 57 125 4.0 12.0 0.00 0.00 0.00 35 1026.6
20180421185109 56 116 6.0 12.0 0.00 0.00 0.00 34 1026.5
20180421184609 56 111 6.0 15.0 0.00 0.00 0.00 35 1026.5
20180421184110 56 106 4.0 14.0 0.00 0.00 0.00 37 1026.5
20180421183609 56 112 1.0 12.0 0.00 0.00 0.00 39 1026.7
20180421183109 56 116 2.0 12.0 0.00 0.00 0.00 40 1026.8
20180421182609 56 111 3.0 12.0 0.00 0.00 0.00 37 1026.9
20180421182109 55 147 1.0 12.0 0.00 0.00 0.00 38 1027.1
20180421181609 55 102 6.0 12.0 0.00 0.00 0.00 39 1027.3
20180421181109 55 121 6.0 12.0 0.00 0.00 0.00 40 1027.4
20180421180609 55 124 6.0 12.0 0.00 0.00 0.00 40 1027.5
20180421180109 54 120 1.0 8.0 0.00 0.00 0.00 41 1027.6
20180421175609 54 139 1.0 9.0 0.00 0.00 0.00 41 1027.7
20180421175109 54 112 3.0 12.0 0.00 0.00 0.00 40 1027.7
20180421174609 54 127 5.0 12.0 0.00 0.00 0.00 40 1027.9
20180421174108 54 134 1.0 12.0 0.00 0.00 0.00 40 1028.0
20180421173609 54 111 3.0 12.0 0.00 0.00 0.00 41 1028.0
20180421173109 54 109 3.0 12.0 0.00 0.00 0.00 43 1027.9
20180421172609 54 111 2.0 5.0 0.00 0.00 0.00 42 1027.8
20180421172109 53 128 2.0 5.0 0.00 0.00 0.00 42 1027.8
20180421171609 53 124 5.0 12.0 0.00 0.00 0.00 43 1027.7
20180421171109 53 116 2.0 3.0 0.00 0.00 0.00 44 1027.6
20180421170609 53 126 6.0 9.0 0.00 0.00 0.00 45 1027.6
20180421170109 53 111 3.0 12.0 0.00 0.00 0.00 45 1027.6
20180421165609 52 126 6.0 12.0 0.00 0.00 0.00 46 1027.8
20180421165109 52 95 3.0 10.0 0.00 0.00 0.00 46 1027.8
20180421164609 52 122 2.0 10.0 0.00 0.00 0.00 47 1027.9
20180421164109 52 115 1.0 7.0 0.00 0.00 0.00 48 1027.7
20180421163609 52 98 6.0 13.0 0.00 0.00 0.00 47 1027.8
20180421163109 51 123 1.0 13.0 0.00 0.00 0.00 49 1027.9
20180421162609 51 117 1.0 13.0 0.00 0.00 0.00 49 1027.9
20180421162109 51 107 2.0 6.0 0.00 0.00 0.00 50 1028.0
20180421161610 51 119 1.0 5.0 0.00 0.00 0.00 51 1028.1
20180421161109 51 122 3.0 6.0 0.00 0.00 0.00 50 1028.1
20180421160608 50 100 2.0 12.0 0.00 0.00 0.00 51 1028.0
20180421160109 50 108 3.0 6.0 0.00 0.00 0.00 53 1028.0
20180421155609 50 103 1.0 12.0 0.00 0.00 0.00 54 1028.1
20180421155109 50 91 3.0 12.0 0.00 0.00 0.00 55 1028.0
20180421154609 49 98 2.0 8.0 0.00 0.00 0.00 56 1027.9
20180421154109 49 96 3.0 8.0 0.00 0.00 0.00 57 1028.0
20180421153609 49 96 2.0 5.0 0.00 0.00 0.00 57 1028.0
20180421153109 48 108 1.0 6.0 0.00 0.00 0.00 57 1028.0
20180421152609 48 91 2.0 5.0 0.00 0.00 0.00 60 1028.0
20180421152109 48 89 1.0 5.0 0.00 0.00 0.00 60 1028.1
20180421151608 48 89 2.0 5.0 0.00 0.00 0.00 62 1028.0
20180421151109 47 90 0.0 2.0 0.00 0.00 0.00 61 1028.0
20180421150608 47 93 1.0 6.0 0.00 0.00 0.00 62 1028.1
20180421150109 47 111 1.0 6.0 0.00 0.00 0.00 60 1028.3
20180421145608 47 107 1.0 5.0 0.00 0.00 0.00 61 1028.2
20180421145109 47 106 2.0 5.0 0.00 0.00 0.00 62 1028.3
20180421144608 47 127 1.0 3.0 0.00 0.00 0.00 62 1028.5
20180421144109 47 128 1.0 5.0 0.00 0.00 0.00 63 1028.5
20180421143609 47 110 1.0 3.0 0.00 0.00 0.00 63 1028.5
20180421143109 47 112 2.0 5.0 0.00 0.00 0.00 63 1028.5
20180421142608 47 89 1.0 5.0 0.00 0.00 0.00 63 1028.4
20180421142109 47 88 1.0 6.0 0.00 0.00 0.00 62 1028.5
20180421141609 47 114 1.0 5.0 0.00 0.00 0.00 62 1028.5
20180421141109 47 90 3.0 7.0 0.00 0.00 0.00 63 1028.6
20180421140608 47 86 3.0 8.0 0.00 0.00 0.00 63 1028.7
20180421140109 47 96 1.0 12.0 0.00 0.00 0.00 64 1028.8
20180421135609 45 0 5.0 12.0 0.00 0.00 0.00 73 1028.0
20180421135108 45 59 5.0 12.0 0.00 0.00 0.00 73 1028.0
20180421134609 45 59 5.0 12.0 0.00 0.00 0.00 73 1028.0
20180421134108 45 59 5.0 12.0 0.00 0.00 0.00 73 1028.0
20180421133609 45 59 5.0 12.0 0.00 0.00 0.00 73 1028.0
20180421133108 45 59 5.0 12.0 0.00 0.00 0.00 73 1028.0
20180421132609 45 59 5.0 12.0 0.00 0.00 0.00 73 1028.0
20180421132109 45 59 5.0 12.0 0.00 0.00 0.00 73 1028.0
20180421131608 45 59 5.0 12.0 0.00 0.00 0.00 73 1028.0
20180421131109 45 59 5.0 12.0 0.00 0.00 0.00 73 1028.0
20180421130609 45 59 5.0 12.0 0.00 0.00 0.00 73 1028.0
20180421130109 45 59 5.0 12.0 0.00 0.00 0.00 73 1028.0
20180421125608 45 59 5.0 12.0 0.00 0.00 0.00 73 1028.0
20180421125108 45 59 5.0 12.0 0.00 0.00 0.00 73 1028.0
20180421124609 45 59 5.0 12.0 0.00 0.00 0.00 73 1028.0
20180421124108 45 59 5.0 12.0 0.00 0.00 0.00 73 1028.0
20180421123609 45 59 5.0 12.0 0.00 0.00 0.00 73 1028.0
20180421123108 45 59 5.0 12.0 0.00 0.00 0.00 73 1028.0
20180421122609 45 59 5.0 12.0 0.00 0.00 0.00 73 1028.0
20180421122108 45 59 5.0 12.0 0.00 0.00 0.00 73 1028.0
20180421121609 45 59 5.0 12.0 0.00 0.00 0.00 73 1028.0
20180421121108 45 59 5.0 12.0 0.00 0.00 0.00 73 1028.0
20180421120608 45 59 5.0 12.0 0.00 0.00 0.00 73 1028.0
20180421120109 45 59 5.0 12.0 0.00 0.00 0.00 73 1028.0
20180421115608 45 59 5.0 12.0 0.00 0.00 0.00 73 1028.0
20180421115109 45 59 5.0 12.0 0.00 0.00 0.00 73 1028.0
20180421114608 45 59 5.0 12.0 0.00 0.00 0.00 73 1028.0
20180421114109 45 59 5.0 12.0 0.00 0.00 0.00 73 1028.0
20180421113608 45 59 5.0 12.0 0.00 0.00 0.00 73 1028.0
20180421113109 45 59 5.0 12.0 0.00 0.00 0.00 73 1028.0
20180421112608 45 59 5.0 12.0 0.00 0.00 0.00 73 1028.0
20180421112109 45 59 5.0 12.0 0.00 0.00 0.00 73 1028.0
20180421111608 45 59 5.0 12.0 0.00 0.00 0.00 73 1028.0
20180421111109 45 59 5.0 12.0 0.00 0.00 0.00 73 1028.0
20180421110608 45 59 5.0 12.0 0.00 0.00 0.00 73 1028.0
20180421110108 45 59 5.0 12.0 0.00 0.00 0.00 73 1028.0
20180421105609 45 59 5.0 12.0 0.00 0.00 0.00 73 1028.0
20180421105108 45 59 5.0 12.0 0.00 0.00 0.00 73 1028.0
20180421104608 45 59 5.0 12.0 0.00 0.00 0.00 73 1028.0
20180421104108 45 59 5.0 12.0 0.00 0.00 0.00 73 1028.0
20180421103608 45 59 5.0 12.0 0.00 0.00 0.00 73 1028.0
20180421103108 45 59 5.0 12.0 0.00 0.00 0.00 73 1028.0
20180421102609 45 59 5.0 12.0 0.00 0.00 0.00 73 1028.0
20180421102108 45 59 5.0 12.0 0.00 0.00 0.00 73 1028.0
20180421101608 45 59 5.0 12.0 0.00 0.00 0.00 73 1028.0
20180421101108 45 59 5.0 12.0 0.00 0.00 0.00 73 1028.0
20180421100608 45 59 5.0 12.0 0.00 0.00 0.00 73 1028.0
20180421100108 45 59 5.0 12.0 0.00 0.00 0.00 73 1028.0
20180421095609 45 59 5.0 12.0 0.00 0.00 0.00 73 1028.0
20180421095108 45 59 5.0 12.0 0.00 0.00 0.00 73 1028.0
20180421094608 45 59 5.0 12.0 0.00 0.00 0.00 73 1028.0
20180421094108 45 59 5.0 12.0 0.00 0.00 0.00 73 1028.0
20180421093608 45 59 5.0 12.0 0.00 0.00 0.00 73 1028.0
20180421093108 45 59 5.0 12.0 0.00 0.00 0.00 73 1028.0
20180421092608 45 59 5.0 12.0 0.00 0.00 0.00 73 1028.0
20180421092108 45 59 5.0 12.0 0.00 0.00 0.00 73 1028.0
20180421091608 45 59 5.0 12.0 0.00 0.00 0.00 73 1028.0
20180421091108 45 59 5.0 12.0 0.00 0.00 0.00 73 1028.0
20180421090608 45 59 5.0 12.0 0.00 0.00 0.00 73 1028.0
20180421090108 45 59 5.0 12.0 0.00 0.00 0.00 73 1028.0
20180421085609 45 59 5.0 12.0 0.00 0.00 0.00 73 1028.0
20180421085108 45 59 5.0 12.0 0.00 0.00 0.00 73 1028.0
20180421084608 45 59 5.0 12.0 0.00 0.00 0.00 73 1028.0
20180421084108 45 59 5.0 12.0 0.00 0.00 0.00 73 1028.0
20180421083608 45 59 5.0 12.0 0.00 0.00 0.00 73 1028.0
20180421083108 45 59 5.0 12.0 0.00 0.00 0.00 73 1028.0
20180421082608 45 59 5.0 12.0 0.00 0.00 0.00 73 1028.0
20180421082108 45 59 5.0 12.0 0.00 0.00 0.00 73 1028.0
20180421081608 45 59 5.0 12.0 0.00 0.00 0.00 73 1028.0
20180421081108 45 59 5.0 12.0 0.00 0.00 0.00 73 1028.0
20180421080608 45 59 5.0 12.0 0.00 0.00 0.00 73 1028.0
20180421080108 45 59 5.0 12.0 0.00 0.00 0.00 73 1028.0
20180421075608 45 59 5.0 12.0 0.00 0.00 0.00 73 1028.0
20180421075108 45 59 5.0 12.0 0.00 0.00 0.00 73 1028.0
20180421074609 45 59 5.0 12.0 0.00 0.00 0.00 73 1028.0
20180421074108 45 59 5.0 12.0 0.00 0.00 0.00 73 1028.0
20180421073609 45 59 5.0 12.0 0.00 0.00 0.00 73 1028.0
20180421073108 45 59 5.0 12.0 0.00 0.00 0.00 73 1028.0
20180421072608 45 59 5.0 12.0 0.00 0.00 0.00 73 1028.0
20180421072108 45 59 5.0 12.0 0.00 0.00 0.00 73 1028.0
20180421071608 45 59 5.0 12.0 0.00 0.00 0.00 73 1028.0
20180421071108 45 59 5.0 12.0 0.00 0.00 0.00 73 1028.0
20180421070609 45 59 5.0 12.0 0.00 0.00 0.00 73 1028.0
20180421070108 45 59 5.0 12.0 0.00 0.00 0.00 73 1028.0
20180421065609 45 59 5.0 12.0 0.00 0.00 0.00 73 1028.0
20180421065108 45 59 5.0 12.0 0.00 0.00 0.00 73 1028.0
20180421064609 45 59 5.0 12.0 0.00 0.00 0.00 73 1028.0
20180421064108 45 59 5.0 12.0 0.00 0.00 0.00 73 1028.0
20180421063607 45 59 5.0 12.0 0.00 0.00 0.00 73 1028.0
20180421063108 45 59 5.0 12.0 0.00 0.00 0.00 73 1028.0
20180421062609 45 59 5.0 12.0 0.00 0.00 0.00 73 1028.0
20180421062108 45 59 5.0 12.0 0.00 0.00 0.00 73 1028.0
20180421061608 45 59 5.0 12.0 0.00 0.00 0.00 73 1028.0
20180421061108 45 59 5.0 12.0 0.00 0.00 0.00 73 1028.0
20180421060608 45 59 5.0 12.0 0.00 0.00 0.00 73 1028.0
20180421060108 45 59 5.0 12.0 0.00 0.00 0.00 73 1028.0
20180421055608 45 59 5.0 12.0 0.00 0.00 0.00 73 1028.0
20180421055109 45 59 5.0 12.0 0.00 0.00 0.00 73 1028.0
20180421054609 45 59 5.0 12.0 0.00 0.00 0.00 73 1028.0
20180421054108 45 59 5.0 12.0 0.00 0.00 0.00 73 1028.0
20180421053608 45 59 5.0 12.0 0.00 0.00 0.00 73 1028.0
20180421053108 45 59 5.0 12.0 0.00 0.00 0.00 73 1028.0
20180421052608 45 59 5.0 12.0 0.00 0.00 0.00 73 1028.0
20180421052108 45 58 1.0 7.0 0.00 0.00 0.00 73 1028.2
20180421051608 45 61 1.0 12.0 0.00 0.00 0.00 73 1028.6
20180421051108 45 61 4.0 10.0 0.00 0.00 0.00 73 1028.8
20180421050608 46 70 1.0 3.0 0.00 0.00 0.00 73 1028.9
20180421050111 46 50 1.0 8.0 0.00 0.00 0.00 74 1028.9
20180421045608 46 34 1.0 3.0 0.00 0.00 0.00 73 1028.9
20180421045108 46 52 1.0 5.0 0.00 0.00 0.00 73 1029.0
20180421044608 46 67 2.0 13.0 0.00 0.00 0.00 73 1029.0
20180421044108 46 57 1.0 6.0 0.00 0.00 0.00 73 1029.1
20180421043608 47 45 1.0 3.0 0.00 0.00 0.00 72 1029.2
20180421043107 47 49 1.0 10.0 0.00 0.00 0.00 72 1029.3
20180421042608 47 56 1.0 14.0 0.00 0.00 0.00 71 1029.2
20180421042107 47 49 1.0 10.0 0.00 0.00 0.00 70 1029.4
20180421041608 48 56 1.0 3.0 0.00 0.00 0.00 69 1029.5
20180421041107 48 38 2.0 10.0 0.00 0.00 0.00 67 1029.6
20180421040608 48 31 0.0 3.0 0.00 0.00 0.00 65 1029.7
20180421040108 48 26 0.0 3.0 0.00 0.00 0.00 63 1029.6
20180421035608 48 19 1.0 3.0 0.00 0.00 0.00 60 1029.7
20180421035108 48 97 0.0 2.0 0.00 0.00 0.00 58 1029.6
20180421034608 48 101 0.0 0.0 0.00 0.00 0.00 58 1029.6
20180421034107 48 101 0.0 0.0 0.00 0.00 0.00 57 1029.6
20180421033608 48 101 0.0 0.0 0.00 0.00 0.00 56 1029.5
20180421033108 49 101 0.0 0.0 0.00 0.00 0.00 56 1029.5
20180421032608 49 101 0.0 0.0 0.00 0.00 0.00 56 1029.5
20180421032107 49 101 0.0 0.0 0.00 0.00 0.00 55 1029.6
20180421031608 49 101 0.0 0.0 0.00 0.00 0.00 54 1029.7
20180421031107 49 101 0.0 0.0 0.00 0.00 0.00 55 1029.7
20180421030608 49 101 0.0 0.0 0.00 0.00 0.00 55 1029.6
20180421030107 49 101 0.0 0.0 0.00 0.00 0.00 56 1029.6
20180421025608 49 101 0.0 0.0 0.00 0.00 0.00 56 1029.6
20180421025108 49 101 0.0 0.0 0.00 0.00 0.00 55 1029.5
20180421024607 49 101 0.0 0.0 0.00 0.00 0.00 55 1029.5
20180421024108 49 101 0.0 0.0 0.00 0.00 0.00 55 1029.5
20180421023607 49 101 0.0 0.0 0.00 0.00 0.00 55 1029.5
20180421023108 49 101 0.0 0.0 0.00 0.00 0.00 56 1029.6
20180421022607 50 101 0.0 0.0 0.00 0.00 0.00 55 1029.6
20180421022108 50 101 0.0 0.0 0.00 0.00 0.00 54 1029.5
20180421021607 50 101 0.0 0.0 0.00 0.00 0.00 54 1029.4
20180421021108 50 101 0.0 0.0 0.00 0.00 0.00 55 1029.4
20180421020607 50 101 0.0 0.0 0.00 0.00 0.00 55 1029.5
20180421020108 50 101 0.0 0.0 0.00 0.00 0.00 54 1029.4
20180421015608 50 101 0.0 0.0 0.00 0.00 0.00 55 1029.4
20180421015108 50 101 0.0 0.0 0.00 0.00 0.00 52 1029.3
20180421014608 51 101 0.0 0.0 0.00 0.00 0.00 53 1029.3
20180421014108 51 101 0.0 0.0 0.00 0.00 0.00 53 1029.3
20180421013608 51 101 0.0 0.0 0.00 0.00 0.00 52 1029.2
20180421013108 51 101 0.0 0.0 0.00 0.00 0.00 51 1029.2
20180421012608 51 101 0.0 0.0 0.00 0.00 0.00 51 1029.2
20180421012107 52 101 0.0 0.0 0.00 0.00 0.00 52 1029.1
20180421011608 52 101 0.0 0.0 0.00 0.00 0.00 51 1028.9
20180421011107 52 101 0.0 0.0 0.00 0.00 0.00 50 1028.9
20180421010608 52 101 0.0 0.0 0.00 0.00 0.00 50 1028.8
20180421010107 52 101 0.0 0.0 0.00 0.00 0.00 49 1028.9
20180421005608 53 101 0.0 0.0 0.00 0.00 0.00 49 1028.9
20180421005107 53 101 0.0 0.0 0.00 0.00 0.00 49 1028.9
20180421004608 53 101 0.0 0.0 0.00 0.00 0.00 48 1028.9
20180421004108 54 101 0.0 0.0 0.00 0.00 0.00 47 1028.9
20180421003607 54 101 0.0 0.0 0.00 0.00 0.00 47 1029.0
20180421003108 54 101 0.0 0.0 0.00 0.00 0.00 46 1029.1
20180421002607 55 101 0.0 0.0 0.00 0.00 0.00 45 1029.1
20180421002107 55 101 0.0 0.0 0.00 0.00 0.00 45 1029.0
20180421001608 55 101 0.0 0.0 0.00 0.00 0.00 45 1028.9
20180421001108 55 101 0.0 1.0 0.00 0.00 0.00 43 1028.9
20180421000608 56 101 0.0 1.0 0.00 0.00 0.00 42 1028.9
20180421000107 56 101 0.0 2.0 0.00 0.00 0.00 41 1029.0
20180420235608 56 102 0.0 1.0 0.00 0.00 0.00 41 1029.0
20180420235107 56 102 0.0 1.0 0.00 0.00 0.00 39 1028.9
20180420234607 56 103 0.0 2.0 0.00 0.00 0.00 40 1028.9
20180420234108 56 101 0.0 2.0 0.00 0.00 0.00 39 1028.9
20180420233607 56 93 0.0 2.0 0.00 0.00 0.00 39 1028.9
20180420233107 56 96 2.0 8.0 0.00 0.00 0.00 38 1028.8
20180420232607 56 92 0.0 3.0 0.00 0.00 0.00 39 1028.8
20180420232107 56 117 0.0 3.0 0.00 0.00 0.00 38 1028.7
20180420231608 56 96 1.0 2.0 0.00 0.00 0.00 37 1028.7
20180420231107 57 88 0.0 5.0 0.00 0.00 0.00 38 1028.7
20180420230607 57 98 1.0 5.0 0.00 0.00 0.00 38 1028.6
20180420230108 57 100 2.0 3.0 0.00 0.00 0.00 39 1028.6
20180420225607 57 95 0.0 2.0 0.00 0.00 0.00 38 1028.6
20180420225107 57 111 5.0 12.0 0.00 0.00 0.00 37 1028.6
20180420224608 57 138 5.0 12.0 0.00 0.00 0.00 37 1028.5
20180420224107 57 98 2.0 6.0 0.00 0.00 0.00 37 1028.5
20180420223608 57 104 2.0 7.0 0.00 0.00 0.00 38 1028.5
20180420223107 57 89 2.0 5.0 0.00 0.00 0.00 37 1028.4
20180420222607 57 134 1.0 2.0 0.00 0.00 0.00 36 1028.5
20180420222107 57 136 1.0 5.0 0.00 0.00 0.00 37 1028.5
20180420221608 57 113 4.0 6.0 0.00 0.00 0.00 37 1028.4
20180420221107 57 109 2.0 13.0 0.00 0.00 0.00 37 1028.3
20180420220608 57 118 3.0 8.0 0.00 0.00 0.00 37 1028.3
20180420220108 57 106 2.0 5.0 0.00 0.00 0.00 36 1028.4
20180420215607 58 110 3.0 12.0 0.00 0.00 0.00 36 1028.4
20180420215107 58 113 3.0 13.0 0.00 0.00 0.00 37 1028.4
20180420214608 58 111 2.0 6.0 0.00 0.00 0.00 37 1028.5
20180420214107 58 107 1.0 8.0 0.00 0.00 0.00 36 1028.6
20180420213607 58 109 5.0 13.0 0.00 0.00 0.00 36 1028.5
20180420213107 58 111 1.0 5.0 0.00 0.00 0.00 36 1028.7
20180420212607 58 123 2.0 6.0 0.00 0.00 0.00 37 1028.7
20180420212108 58 130 3.0 8.0 0.00 0.00 0.00 38 1028.6
20180420211607 58 113 4.0 9.0 0.00 0.00 0.00 38 1028.6
20180420211107 58 114 5.0 18.0 0.00 0.00 0.00 37 1028.9
20180420210607 58 116 5.0 13.0 0.00 0.00 0.00 37 1028.9
20180420210107 58 157 0.0 5.0 0.00 0.00 0.00 37 1028.9
20180420205607 57 114 1.0 12.0 0.00 0.00 0.00 38 1029.0
20180420205107 57 111 3.0 9.0 0.00 0.00 0.00 38 1029.1
20180420204607 57 187 2.0 9.0 0.00 0.00 0.00 37 1029.3
20180420204107 57 134 5.0 12.0 0.00 0.00 0.00 38 1029.3
20180420203607 57 109 4.0 9.0 0.00 0.00 0.00 38 1029.4
20180420203107 57 126 1.0 6.0 0.00 0.00 0.00 40 1029.6
20180420202607 57 134 2.0 8.0 0.00 0.00 0.00 40 1029.6
20180420202108 57 153 2.0 8.0 0.00 0.00 0.00 38 1029.8
20180420201607 57 148 3.0 7.0 0.00 0.00 0.00 38 1029.9
20180420201107 57 133 2.0 8.0 0.00 0.00 0.00 38 1030.0
20180420200607 57 128 5.0 9.0 0.00 0.00 0.00 38 1030.2
20180420200107 57 124 1.0 7.0 0.00 0.00 0.00 38 1030.3
20180420195607 56 125 1.0 7.0 0.00 0.00 0.00 40 1030.3
20180420195107 56 102 1.0 7.0 0.00 0.00 0.00 39 1030.4
20180420194607 56 101 2.0 8.0 0.00 0.00 0.00 42 1030.5
20180420194107 56 147 0.0 2.0 0.00 0.00 0.00 39 1030.6
20180420193607 56 139 3.0 8.0 0.00 0.00 0.00 40 1030.6
20180420193107 56 86 5.0 13.0 0.00 0.00 0.00 39 1030.7
20180420192607 56 116 4.0 8.0 0.00 0.00 0.00 38 1030.7
20180420192107 56 113 4.0 7.0 0.00 0.00 0.00 38 1030.8
20180420191607 56 155 2.0 7.0 0.00 0.00 0.00 38 1031.0
20180420191107 56 105 3.0 10.0 0.00 0.00 0.00 41 1031.1